EHI
28 29 31 31 33 40 44 40 35 32 31 24 17 12 12 14 14 13 16 18 17 14 10 9 10 10 11 10 9 9 6 3 2 4 5 4 1 2 4 8 11 11 13
34 35 34 33 36 42 45 43 38 34 30 25 19 15 14 15 14 14 18 19 17 13 10 10 11 11 13 13 12 11 8 4 3 5 6 4 2 2 4 7 8 9 11
41 41 39 36 39 44 46 45 42 36 31 27 22 18 18 17 15 18 24 25 18 12 11 12 13 13 14 14 14 14 11 8 6 6 6 6 5 4 4 4 6 7 9
42 42 40 38 39 41 44 45 45 40 34 30 25 21 21 19 17 22 30 31 22 13 11 13 15 14 13 13 14 14 15 13 10 7 7 8 8 7 5 4 5 7 8
39 40 39 38 37 38 41 44 46 44 40 34 27 23 23 21 20 24 32 33 26 17 11 12 16 15 14 13 12 12 14 15 14 11 10 10 10 9 7 6 6 8 9
38 40 40 39 38 38 40 43 44 44 41 35 28 24 22 22 22 25 29 30 27 22 16 15 19 20 16 13 12 12 13 14 16 16 14 13 13 11 9 7 7 8 8
33 37 40 40 41 41 42 43 44 43 40 36 30 25 22 21 22 25 27 26 24 24 23 23 25 25 20 15 16 18 16 15 16 16 14 14 13 12 9 6 5 6 6
26 30 35 39 40 40 41 44 45 43 39 36 33 27 23 22 22 24 25 24 22 24 27 29 29 28 23 19 22 24 21 19 17 14 11 11 11 9 6 4 3 4 5
23 26 31 36 38 37 38 42 45 43 39 36 33 27 23 22 22 22 22 23 24 24 27 29 28 27 25 23 24 24 23 22 17 12 9 9 9 7 4 3 3 4 4
22 23 28 33 35 35 37 40 43 42 39 35 30 25 23 21 19 17 19 23 26 28 29 28 27 27 26 24 22 20 20 20 16 12 10 9 9 8 5 4 5 5 5
20 21 25 29 31 33 37 39 40 39 36 33 29 26 25 22 18 16 19 23 27 29 30 29 29 29 28 24 21 18 19 17 14 11 10 9 9 8 7 7 8 8 7
19 20 23 26 28 31 34 36 36 33 31 30 28 27 26 24 21 21 23 26 28 29 29 30 31 29 28 26 23 21 18 14 12 11 12 12 10 8 8 9 10 10 9
19 20 23 28 30 31 32 33 32 30 28 27 27 26 26 25 25 26 27 28 30 30 29 31 31 27 26 26 25 24 20 14 12 14 15 15 13 11 10 9 10 11 11
20 22 27 33 34 33 33 32 32 30 29 28 27 25 24 25 26 26 27 28 30 30 30 30 28 25 24 25 25 24 22 19 16 17 18 18 15 13 10 9 10 11 11
22 25 32 36 35 34 33 32 30 30 31 31 28 25 24 25 27 27 27 28 30 30 30 27 25 23 21 20 21 21 22 21 20 19 20 19 15 11 7 6 7 9 10
23 28 34 37 35 33 33 31 28 28 31 32 31 27 24 24 25 26 26 27 28 29 29 25 22 21 18 15 14 16 20 22 22 21 20 18 14 9 5 3 3 5 7
25 28 33 35 32 31 31 29 27 27 29 31 33 30 25 24 25 26 26 27 27 27 27 26 23 20 15 10 8 12 19 22 22 21 19 16 13 10 8 4 2 2 2
26 27 30 30 29 28 28 28 29 29 28 28 30 30 27 26 27 28 30 30 29 28 29 27 24 20 14 9 6 8 14 20 21 21 19 16 14 12 11 8 6 3 2
25 26 26 26 27 27 28 29 31 31 29 27 28 28 28 28 30 33 35 34 32 31 30 26 23 20 15 9 4 5 10 15 17 17 16 14 12 11 10 10 8 6 5
27 27 26 25 27 30 31 32 33 33 31 29 29 29 29 30 32 35 38 37 34 33 30 25 21 19 16 9 3 3 7 10 11 11 11 9 8 7 6 9 10 8 7
29 28 26 25 27 30 32 32 33 34 33 32 31 30 30 31 31 33 36 36 34 32 29 25 20 18 15 10 4 2 3 6 8 7 6 5 3 2 2 5 8 8 6
29 27 26 26 27 29 29 29 30 33 35 35 33 31 30 28 27 29 32 33 31 29 25 21 16 16 15 11 5 2 1 3 6 6 4 3 1 0 0 2 4 3 2
27 26 26 26 26 27 27 27 28 30 33 35 34 31 28 25 25 27 29 30 29 25 20 15 12 12 14 12 7 3 1 1 3 5 4 1 0 0 1 1 1 1 1
26 26 25 26 26 26 27 27 26 27 29 31 31 29 25 23 23 25 27 27 25 22 17 13 10 10 11 10 8 6 4 3 3 5 5 2 1 1 3 3 2 2 3
25 24 23 24 25 26 27 27 26 27 27 28 28 26 23 20 21 21 21 20 19 15 12 11 10 9 7 6 6 6 6 4 4 5 5 4 3 4 4 5 5 4 4
23 22 21 22 24 25 26 27 27 27 27 26 25 25 22 19 18 18 15 14 12 8 6 6 8 7 5 3 2 3 4 4 3 3 5 5 5 5 5 5 5 5 4
Wind_Speed
8 7 6 7 8 7 6 5 4 3 2 2 2 1 1 1 1 1 2 2 1 1 1 1 1 1 1 0 1 0 1 1 1 0 1 2 3 3 2 3 3 3 4
9 8 7 7 8 7 6 5 4 4 3 2 1 1 1 1 1 0 1 2 1 1 2 1 1 1 1 1 1 1 1 1 1 1 1 1 1 1 2 2 2 3 2
10 10 8 7 7 7 6 6 5 4 3 2 1 1 1 1 1 1 1 1 1 1 1 1 1 1 1 1 1 2 2 2 1 1 1 1 1 1 1 1 1 1 2
10 10 9 8 7 7 7 5 6 5 3 3 2 2 2 1 1 1 1 2 2 2 1 1 1 1 1 1 2 1 2 2 2 2 2 2 1 1 1 1 1 1 2
9 10 10 9 7 7 7 6 5 5 4 3 2 2 1 1 1 1 2 2 2 2 1 1 1 1 1 1 2 1 2 1 2 2 2 1 2 2 2 2 1 1 1
8 8 8 8 7 7 6 6 6 4 4 3 2 2 1 1 1 1 2 2 2 1 1 1 1 1 1 2 2 2 2 2 2 2 2 1 1 2 2 2 2 2 2
8 8 8 7 6 6 6 6 6 5 4 3 2 2 2 2 2 2 1 1 2 2 1 1 1 1 1 2 1 1 2 2 2 2 2 2 2 2 1 1 2 2 1
7 7 7 7 6 6 5 6 7 5 5 4 3 2 1 2 1 2 1 1 1 1 2 1 1 1 1 2 1 2 2 1 2 3 2 2 2 2 1 1 1 2 1
6 7 6 6 6 6 5 5 6 5 5 5 4 3 2 2 2 1 2 1 0 1 1 1 1 1 1 1 1 1 2 1 1 2 2 2 2 1 1 1 1 1 2
6 6 6 6 5 6 6 6 6 5 5 4 4 3 2 2 1 1 1 1 0 1 1 1 0 0 0 1 1 1 1 1 1 1 1 1 2 2 2 1 1 1 1
5 5 5 5 5 5 5 5 5 4 4 4 3 2 3 2 2 1 1 0 0 0 1 0 0 1 0 0 1 2 1 1 2 2 1 1 1 2 2 2 1 1 1
5 5 4 4 3 3 4 4 4 4 3 3 3 3 3 2 2 2 1 1 1 1 1 1 1 2 1 1 1 2 2 2 2 2 1 2 2 2 2 2 1 1 1
4 4 4 3 3 3 2 3 3 3 3 3 2 2 3 2 2 1 1 1 1 1 1 1 2 2 1 1 2 2 2 2 2 2 2 2 2 2 2 2 2 1 1
4 3 3 3 2 2 2 1 2 2 2 2 2 2 2 2 2 2 1 1 1 2 2 1 2 2 2 2 2 2 2 3 3 2 2 1 1 1 2 2 1 1 1
3 3 3 3 2 2 2 1 1 1 1 2 2 2 2 2 2 2 1 1 2 2 2 2 3 3 2 2 2 2 3 3 3 2 2 2 1 1 1 2 1 1 1
3 3 3 3 2 2 1 1 1 1 1 2 2 1 1 1 2 1 1 2 2 2 2 2 2 2 2 1 1 2 3 3 3 3 2 2 2 1 2 1 1 1 2
3 3 2 2 1 1 2 1 1 1 1 1 1 1 1 1 1 2 2 2 2 2 2 2 2 1 1 1 1 2 3 3 3 2 2 3 2 2 1 2 2 2 3
3 3 2 1 1 1 1 1 1 1 1 1 1 1 1 2 2 2 2 2 2 2 2 3 2 2 2 2 1 2 4 3 2 2 2 2 2 1 1 2 2 2 3
2 2 1 1 1 0 0 1 1 2 1 1 1 2 2 2 2 2 2 2 2 2 2 2 2 2 2 2 2 2 3 3 3 3 3 3 3 2 2 2 2 2 2
2 2 1 1 1 0 1 1 1 1 2 1 1 2 2 3 3 2 2 2 2 2 2 2 2 2 2 2 2 2 3 3 2 2 2 3 3 3 4 3 3 3 2
1 1 1 1 1 1 1 1 2 2 2 1 2 2 2 2 2 2 2 2 2 2 2 2 2 2 3 3 3 3 3 2 2 2 1 1 3 4 4 4 3 4 2
1 1 1 1 1 1 1 1 2 1 1 1 2 2 2 3 2 2 3 2 2 2 3 3 2 2 2 2 3 4 4 4 3 2 1 1 3 4 5 5 5 5 3
1 1 1 1 1 1 1 2 2 1 1 1 2 2 2 2 1 2 3 3 3 3 2 2 2 2 1 1 2 3 4 4 3 2 2 2 3 4 4 6 6 5 3
1 1 1 2 1 2 2 2 1 1 2 2 3 2 2 2 1 2 2 2 1 1 1 2 2 1 1 1 1 1 2 2 2 2 3 3 4 4 3 3 4 4 3
1 2 2 2 3 3 3 2 1 2 3 3 3 3 2 1 1 1 1 2 1 2 2 2 1 1 1 0 1 2 2 1 2 2 2 2 2 2 2 2 2 3 2
2 2 3 3 4 4 3 3 3 3 3 4 3 3 2 2 2 2 1 1 2 2 3 2 2 1 1 1 2 2 2 3 2 2 2 2 2 2 2 2 2 2 2
Wind_Direction
158 152 150 147 145 142 140 143 144 129 131 145 169 179 207 213 195 161 136 153 213 226 256 307 288 290 302 276 261 211 279 262 236 267 290 257 223 205 207 212 207 203 200
160 156 155 151 147 142 146 145 144 143 152 163 182 183 193 219 169 116 139 169 211 238 224 220 279 252 252 267 289 292 272 259 227 209 234 294 281 262 227 194 211 215 207
163 159 159 159 154 151 153 160 155 152 161 169 165 196 194 216 192 177 165 187 208 217 276 239 276 277 242 222 254 267 255 265 264 222 187 218 244 305 289 241 219 226 228
164 162 162 163 165 161 160 151 153 152 162 177 185 198 193 214 221 191 170 188 203 207 203 225 245 280 295 270 257 246 283 272 273 267 221 203 196 219 274 288 245 242 242
159 160 164 167 169 163 161 153 150 156 163 175 192 218 212 222 228 193 174 187 192 201 196 188 221 247 267 265 287 313 288 295 290 288 281 252 225 221 213 245 260 271 252
151 153 164 158 160 154 151 149 146 152 159 171 187 210 237 242 252 215 179 196 191 203 201 183 209 245 263 266 269 276 274 269 277 284 292 288 278 248 224 224 237 236 239
150 154 155 153 157 153 152 148 145 154 160 166 181 207 238 233 250 257 205 208 202 188 182 186 192 253 272 273 272 264 271 267 275 276 277 279 278 282 263 238 256 259 241
153 151 152 154 151 153 155 150 152 161 166 170 186 196 222 232 235 256 270 211 246 136 142 168 177 222 253 265 265 265 254 263 275 275 273 274 274 277 246 234 242 271 272
141 143 148 149 155 157 152 149 147 163 170 174 183 183 190 234 259 227 249 278 29 122 123 137 153 226 262 291 303 299 305 328 294 285 284 282 277 269 263 241 224 225 256
136 136 140 141 156 164 155 152 154 162 170 177 189 187 195 215 251 254 226 238 209 50 96 128 164 216 271 327 312 314 333 347 320 302 316 314 311 312 284 272 255 236 227
133 127 130 134 149 147 147 149 146 159 169 181 179 187 185 209 214 230 267 242 270 187 184 194 267 265 242 255 280 291 288 292 294 295 310 309 317 311 307 314 294 262 212
130 127 121 124 123 131 136 143 153 168 171 168 177 185 173 194 212 218 235 239 223 222 205 209 230 260 245 232 250 265 274 267 275 289 297 296 299 307 309 313 304 276 228
125 133 127 122 117 108 122 150 163 169 168 160 169 181 190 193 201 215 223 238 238 238 230 224 238 248 257 250 260 261 272 270 266 262 266 280 292 296 309 295 293 275 251
137 141 122 110 107 103 103 118 162 156 162 154 166 174 200 205 205 203 196 228 242 247 244 236 255 247 248 262 269 271 260 263 267 260 249 261 262 278 287 271 276 273 265
137 117 108 101 101 99 105 103 73 139 160 154 173 187 191 209 203 194 194 217 238 243 241 236 245 246 235 251 257 268 259 257 261 259 244 242 214 218 257 273 267 249 235
148 122 107 103 104 115 124 117 129 61 141 166 180 195 194 225 214 193 195 213 226 235 242 240 239 251 263 302 284 267 276 260 252 253 254 245 201 202 219 252 281 262 233
141 121 117 127 142 156 134 137 128 141 153 180 167 159 197 227 223 219 206 216 217 228 244 251 242 235 255 273 306 295 271 256 250 248 249 262 243 180 209 226 245 259 260
125 116 123 147 168 156 135 118 161 148 178 197 206 196 209 223 235 234 221 224 220 233 243 254 241 227 247 243 251 288 260 257 247 235 233 234 251 225 229 231 232 242 248
115 124 161 179 161 147 147 148 200 185 199 219 234 225 221 232 234 244 234 230 234 236 235 244 234 226 231 249 256 263 262 251 246 237 224 212 210 220 210 211 227 254 266
109 124 145 148 136 124 178 198 232 221 222 232 253 238 231 231 234 243 241 233 229 230 232 237 240 233 218 227 239 244 255 263 256 239 213 198 198 201 205 213 220 239 260
127 135 149 149 145 175 188 209 238 241 234 226 246 246 242 234 223 245 243 240 236 229 232 229 233 232 220 208 218 230 243 266 279 261 231 196 190 212 221 221 222 230 255
119 136 111 102 139 187 198 230 248 259 258 249 253 257 249 252 231 233 240 231 233 234 231 228 241 246 213 189 211 226 240 255 259 259 250 216 209 217 224 226 223 224 235
140 165 166 176 187 215 211 235 268 258 257 263 267 266 255 242 237 240 243 224 222 237 245 241 248 244 196 179 213 225 246 255 254 276 282 262 234 226 226 223 216 211 218
184 213 212 209 220 230 233 240 253 267 263 259 264 250 243 234 222 255 266 262 255 258 268 267 274 275 194 159 265 241 242 250 255 280 273 248 238 228 235 224 210 212 216
225 218 224 224 225 229 234 243 233 243 263 266 258 250 249 245 230 229 272 273 275 225 231 255 263 274 284 261 281 262 263 279 275 281 260 243 234 228 220 221 214 210 205
227 221 222 228 227 228 237 242 242 242 254 258 253 253 252 244 236 222 242 279 225 203 193 198 206 267 176 204 256 258 258 257 241 217 233 244 239 243 236 219 210 210 209